This is the latest recevied weather packets stored in our database for station/object KB1JDX. If no packets are shown the sender has not sent any weather packets the latest 10 day(s).
| Time | Temp. | Humidity | Pressure | Rain* | Wind** | Luminosity | Snow |
|---|---|---|---|---|---|---|---|
| 1787764694 | 27.22° C | 49% | 1017.2 hPa | 0 mm | 0 m/s | - | - |
| 1787764626 | 27.22° C | 48% | 1017.3 hPa | 0 mm | 0 m/s | - | - |
| 1787763494 | 26.67° C | 49% | 1017.5 hPa | 0 mm | 0 m/s | - | - |
| 1787762294 | 27.22° C | 47% | 1017.5 hPa | 0 mm | 0 m/s | - | - |
| 1787761094 | 26.11° C | 46% | 1017.8 hPa | 0 mm | 0 m/s | - | - |
| 1787761026 | 26.11° C | 46% | 1017.7 hPa | 0 mm | 0 m/s | - | - |
| 1787759894 | 25° C | 45% | 1017.9 hPa | 0 mm | 0 m/s | - | - |
| 1787758694 | 26.11° C | 44% | 1017.8 hPa | 0 mm | 0 m/s | - | - |
| 1787757496 | 25.56° C | 38% | 1017.7 hPa | 0 mm | 0 m/s | - | - |
| 1787757426 | 25.56° C | 38% | 1017.8 hPa | 0 mm | 0 m/s | - | - |
| 1787756294 | 24.44° C | 33% | 1018 hPa | 0 mm | 0 m/s | - | - |
| 1787753894 | 22.78° C | 6% | 1017.8 hPa | 0 mm | 0 m/s | - | - |
| 1787753826 | 22.22° C | 100% | 1017.8 hPa | 0 mm | 0 m/s | - | - |
| 1787752694 | 21.11° C | 100% | 1018 hPa | 0 mm | 0 m/s | - | - |
| 1787750294 | 19.44° C | 100% | 1018.1 hPa | 0 mm | 0 m/s | - | - |
| 1787750226 | 19.44° C | 100% | 1018.1 hPa | 0 mm | 0 m/s | - | - |
| 1787749095 | 17.78° C | 100% | 1018.2 hPa | 0 mm | 0 m/s | - | - |
| 1787747894 | 16.67° C | 100% | 1018.2 hPa | 0 mm | 0 m/s | - | - |
| 1787746695 | 16.11° C | 100% | 1018.1 hPa | 0 mm | 0 m/s | - | - |
| 1787746626 | 16.11° C | 100% | 1018.1 hPa | 0 mm | 0 m/s | - | - |
| 1787745494 | 15.56° C | 100% | 1017.7 hPa | 0 mm | 0 m/s | - | - |
| 1787743094 | 14.44° C | 100% | 1017.7 hPa | 0 mm | 0 m/s | - | - |
| 1787743026 | 14.44° C | 100% | 1017.7 hPa | 0 mm | 0 m/s | - | - |
| 1787739426 | 13.89° C | 100% | 1017.2 hPa | 0 mm | 0 m/s | - | - |
| 1787738295 | 13.89° C | 100% | 1016.9 hPa | 0 mm | 0 m/s | - | - |
* Rain latest hour (hover to see other rain measurements)
** Current wind speed in m/s (hover to see current wind gust speed)